Погода в Сольвычегодске

Россия / Архангельская область     61°19′50″N   46°55′41″E
темп.,
°C
ветер,
м/с
пор.,
м/с
влажн.,
%
обл.,
%
осадки,
мм/ч
давл.,
гПа
погр.,
м
15 апреля, чт
чт1500:00+10сз5988100 0.4 1017670
03:00+5с3789100 1.1 1020556
06:00+5ссз3783100 2.4 1022765
09:00+6с356289 2.4 10231262
12:00+8ссз4545100 0.0 10251431
15:00+8с4638100 0.0 10261540
18:00+6с36495 0.0 1027772
21:00+2с26700 0.0 1029124
16 апреля, пт
пт1600:000ссв22760 0.0 103134
03:00−1всв11760 0.0 103211
06:00+1ссв01675 0.0 103275
09:00+5зсз12445 0.0 1033773
12:00+8сз33355 0.0 10321183
15:00+9сз35355 0.0 10311361
18:00+7сз25471 0.0 1031246
21:00+3зсз247018 0.0 103180
17 апреля, сб
сб1700:00+1с22865 0.0 103221
03:000ссз229247 0.0 103329
06:00+1сз26825 0.0 1033209
09:00+5сз35555 0.0 1033763
12:00+9сз464843 0.0 10311205
15:00+10сз574437 0.0 10301574
18:00+9сз49515 0.0 10291171
21:00+5сз3116726 0.0 1029378
18 апреля, вс
вс1800:00+3сз29815 0.0 1030257
03:00+2ссз399160 0.0 1031360
06:00+2ссв387788 0.0 1033814
09:00+4ссв35415 0.0 10341136
12:00+6ссв35315 0.0 10341635
15:00+7ссв34295 0.0 10341874
18:00+5св34355 0.0 1035579
21:00+1в24525 0.0 103681
19 апреля, пн
пн1900:00−1вюв26605 0.0 1038116
03:00−1юв23575 0.0 103977
06:000ююв134832 0.0 1040161
09:00+5ю21335 0.0 1039928
12:00+8ююз11295 0.0 10391677
15:00+9зюз11305 0.0 10381745
18:00+7ююв11405 0.0 103812
21:00+3ю22545 0.0 103833